Columbus, GA

7:43 PM EST on February 23, 2018 (GMT -0500)
Columbus Metro

Weather History for KCSG - May, 2013

Change the Weather History Date:

Friday, May 31, 2013

  Actual Average Record
Temperature  
Mean Temperature 80 °F 77 °F  
Max Temperature 90 °F 87 °F 99 °F (1945)
Min Temperature 69 °F 66 °F 49 °F (1984)
Degree Days  
Heating Degree Days 0 0  
Month to date heating degree days 27 6  
Since 1 July heating degree days 1800 2120  
Cooling Degree Days 15 12  
Month to date cooling degree days 237 254  
Year to date cooling degree days 363 358  
Growing Degree Days 30 (Base 50)    
Moisture  
Dew Point 64 °F    
Average Humidity 61    
Maximum Humidity 84    
Minimum Humidity 38    
Precipitation  
Precipitation 0.00 in 0.12 in 3.49 in (2005)
Month to date precipitation 2.86 3.19  
Year to date precipitation 25.61 20.49  
Sea Level Pressure  
Sea Level Pressure 30.11 in    
Wind  
Wind Speed 9 mph (SE)    
Max Wind Speed 18 mph    
Max Gust Speed 24 mph    
Visibility 10 miles    
Events      
T = Trace of Precipitation, MM = Missing Value Source: NWS Daily Summary

Daily Weather History Graph

Daily Weather History Graph

Search for Another Location

Airport or City:

Trip Planner

Search our weather history database for the weather conditions in past years. The results will help you decide how hot, cold, wet, or windy it might be!

Date:

Astronomy

May. 31, 2013 Rise Set
Actual Time 6:33 AM EDT 8:41 PM EDT
Civil Twilight 6:05 AM EDT 9:09 PM EDT
Nautical Twilight 5:31 AM EDT 9:44 PM EDT
Astronomical Twilight 4:54 AM EDT 10:20 PM EDT
Moon 1:31 AM EDT (5/31) 1:30 PM EDT (5/31)
Length of Visible Light 15h 04m
Length of Day
14h 08m
Waning Gibbous, 51% of the Moon is Illuminated
May 31
Waning Gibbous
May 31
Last Quarter
Jun 8
New
Jun 16
First Quarter
Jun 23
Full

Hourly Weather History & Observations

Time (EDT) Temp. Heat Index Dew Point Humidity Pressure Visibility Wind Dir Wind Speed Gust Speed Precip Events Conditions
12:51 AM 78.1 °F - 64.0 °F 62% 30.12 in 10.0 mi SE 10.4 mph - N/A   Clear
1:51 AM 75.9 °F - 64.0 °F 67% 30.13 in 10.0 mi SE 8.1 mph - N/A   Clear
2:51 AM 73.9 °F - 64.0 °F 71% 30.12 in 10.0 mi SE 4.6 mph - N/A   Clear
3:51 AM 72.0 °F - 64.0 °F 76% 30.10 in 10.0 mi East 5.8 mph - N/A   Clear
4:51 AM 71.1 °F - 64.0 °F 78% 30.09 in 10.0 mi East 5.8 mph - N/A   Clear
5:51 AM 70.0 °F - 64.9 °F 84% 30.10 in 10.0 mi East 5.8 mph - N/A   Clear
6:51 AM 69.1 °F - 64.9 °F 87% 30.12 in 10.0 mi East 6.9 mph - N/A   Mostly Cloudy
7:47 AM 71.6 °F - 66.2 °F 83% 30.15 in 10.0 mi ESE 5.8 mph - N/A   Scattered Clouds
7:51 AM 71.1 °F - 66.9 °F 87% 30.14 in 10.0 mi ESE 5.8 mph - N/A   Partly Cloudy
8:12 AM 73.4 °F - 66.2 °F 78% 30.16 in 10.0 mi ESE 5.8 mph - N/A   Partly Cloudy
8:30 AM 73.4 °F - 66.2 °F 78% 30.16 in 10.0 mi SE 4.6 mph - N/A   Mostly Cloudy
8:51 AM 73.9 °F - 66.0 °F 76% 30.16 in 10.0 mi South 10.4 mph - N/A   Mostly Cloudy
8:59 AM 73.4 °F - 66.2 °F 78% 30.17 in 10.0 mi South 11.5 mph - N/A   Mostly Cloudy
9:21 AM 75.2 °F - 66.2 °F 73% 30.17 in 10.0 mi SSE 9.2 mph - N/A   Mostly Cloudy
9:29 AM 75.2 °F - 66.2 °F 73% 30.17 in 10.0 mi South 6.9 mph - N/A   Mostly Cloudy
9:51 AM 77.0 °F - 66.0 °F 69% 30.16 in 10.0 mi South 9.2 mph - N/A   Mostly Cloudy
9:59 AM 78.8 °F - 66.2 °F 65% 30.17 in 10.0 mi South 8.1 mph - N/A   Scattered Clouds
10:51 AM 81.0 °F 82.5 °F 64.0 °F 56% 30.15 in 10.0 mi South 5.8 mph - N/A   Scattered Clouds
11:51 AM 84.0 °F 84.9 °F 63.0 °F 49% 30.14 in 10.0 mi South 11.5 mph 19.6 mph N/A   Partly Cloudy
12:51 PM 84.9 °F 85.9 °F 63.0 °F 48% 30.12 in 10.0 mi South 11.5 mph 18.4 mph N/A   Scattered Clouds
1:51 PM 87.1 °F 87.8 °F 63.0 °F 44% 30.10 in 10.0 mi SSE 12.7 mph 17.3 mph N/A   Mostly Cloudy
2:51 PM 86.0 °F 86.3 °F 62.1 °F 44% 30.07 in 10.0 mi SSE 15.0 mph - N/A   Mostly Cloudy
3:51 PM 90.0 °F 90.0 °F 61.0 °F 38% 30.06 in 10.0 mi SSE 12.7 mph 19.6 mph N/A   Mostly Cloudy
4:51 PM 87.1 °F 87.0 °F 61.0 °F 41% 30.05 in 10.0 mi SSE 10.4 mph - N/A   Mostly Cloudy
5:51 PM 89.1 °F 88.8 °F 60.1 °F 38% 30.04 in 10.0 mi SSE 12.7 mph - N/A   Partly Cloudy
6:51 PM 88.0 °F 87.9 °F 61.0 °F 40% 30.03 in 10.0 mi SSE 12.7 mph - N/A   Mostly Cloudy
7:51 PM 87.1 °F 87.5 °F 62.1 °F 43% 30.03 in 10.0 mi South 6.9 mph - N/A   Partly Cloudy
8:51 PM 82.9 °F 83.7 °F 62.1 °F 49% 30.04 in 10.0 mi SE 3.5 mph - N/A   Clear
9:51 PM 81.0 °F 82.2 °F 63.0 °F 54% 30.04 in 10.0 mi ESE 4.6 mph - N/A   Clear
10:51 PM 79.0 °F - 63.0 °F 58% 30.04 in 10.0 mi ESE 4.6 mph - N/A   Clear
11:51 PM 79.0 °F - 63.0 °F 58% 30.05 in 10.0 mi SSE 10.4 mph - N/A   Mostly Cloudy